Regional Weather Roundup
Issued by NWS Charleston, SC

Current Version | Previous Version | Text Only | Print | Product List | Glossary Off
Versions: 1 2 3 4 5 6 7 8 9 10 11 12 13 14 15 16 17 18 19 20 21 22 23 24 25 26 27 28 29 30 31 32 33 34 35 36 37 38 39 40 41 42 43 44 45 46 47 48 49 50

000
ASUS42 KCHS 031226
RWRCHS

REGIONAL WEATHER ROUNDUP
NATIONAL WEATHER SERVICE CHARLESTON SC
800 AM EDT SUN MAY 03 2015

NOTE: "FAIR" INDICATES FEW OR NO CLOUDS BELOW 12,000 FEET WITH NO
SIGNIFICANT WEATHER AND/OR OBSTRUCTIONS TO VISIBILITY.

NOT ALL STATIONS ARE QUALITY CONTROLLED BY THE NATIONAL
WEATHER SERVICE. USE DATA WITH CAUTION...ESPECIALLY
DEWPOINT OBSERVATIONS.

SCZ027-030-031-034>040-042>050-031300-
...SOUTHEAST SOUTH CAROLINA...

CITY           SKY/WX    TMP DP  RH WIND       PRES   REMARKS
N CHARLESTON   SUNNY     61  56  83 CALM      30.16R
6HR MIN TEMP:  55; 6HR MAX TEMP:  61;

WATERFRONT PRK NOT AVBL
MOUNT PLEASANT FAIR      63  57  82 MISG      30.17R
PINOPOLIS      NOT AVBL
MONCKS CORNER  FAIR      59  55  88 CALM      30.17R
SUMMERVILLE    FAIR      57  55  94 CALM      30.18R
BEAUFORT MCAS  SUNNY     60  55  83 CALM      30.17R
6HR MIN TEMP:  54; 6HR MAX TEMP:  60;

BEAUFORT ARPT  FAIR      63  59  88 CALM      30.17R
HILTON HEAD IS SUNNY     57  57 100 CALM      30.17R
WALTERBORO     SUNNY     61  52  72 CALM      30.18R
ALLENDALE      FAIR      59  55  88 CALM      30.17R

...SOUTHERN MIDLANDS AND PEE DEE...

CITY           SKY/WX    TMP DP  RH WIND       PRES   REMARKS
GEORGETOWN     NOT AVBL
KINGSTREE      NOT AVBL
ORANGEBURG     SUNNY     55  51  86 CALM      30.17R
6HR MIN TEMP:  50; 6HR MAX TEMP:  55;

BARNWELL       FAIR      59  55  88 CALM      30.18R
AIKEN          FAIR      55  50  82 CALM      30.20R
MANNING        HVY RAIN  54  41  62 CALM      30.17R
COLUMBIA       SUNNY     57  50  77 S3        30.16R
6HR MIN TEMP:  50; 6HR MAX TEMP:  58;

SUMTER         SUNNY     56  51  82 CALM      30.15R
6HR MIN TEMP:  48; 6HR MAX TEMP:  56;

FLORENCE       SUNNY     56  53  90 CALM      30.17R
6HR MIN TEMP:  49; 6HR MAX TEMP:  57;

MYRTLE BEACH   MOSUNNY  N/A N/A N/A CALM        N/A  FOG
N MYRTLE BEACH MOSUNNY   60  59  96 CALM      30.16R FOG
6HR MIN TEMP:  53; 6HR MAX TEMP:  59;


$$

GAZ063-065-086>088-099>101-113>116-118-119-134>141-150-031300-
...SOUTHEAST GEORGIA...

CITY           SKY/WX    TMP DP  RH WIND       PRES   REMARKS
SAVANNAH ARPT  SUNNY     59  54  83 W5        30.16R
6HR MIN TEMP:  55; 6HR MAX TEMP:  59;

HUNTER AAF     SUNNY     59  57  94 CALM      30.14R
6HR MIN TEMP:  54; 6HR MAX TEMP:  59;

FORT STEWART   SUNNY     58  56  92 CALM      30.14R
6HR MIN TEMP:  53; 6HR MAX TEMP:  58;

STATESBORO       N/A     62  55  78 W5        30.17R
SYLVANIA       SUNNY     59  56  89 CALM      30.18R
CLAXTON        FAIR      59  57  94 CALM      30.18R

...CSRA...CENTRAL AND FAR SOUTHEAST GEORGIA...

CITY           SKY/WX    TMP DP  RH WIND       PRES   REMARKS
THOMSON        SUNNY     58  56  93 CALM      30.21R
AUGUSTA-BUSH   SUNNY     52  50  93 CALM      30.16R FOG
6HR MIN TEMP:  46; 6HR MAX TEMP:  52;

AUGUSTA-DANIEL SUNNY     60  51  72 CALM      30.16R
SWAINSBORO     NOT AVBL
VIDALIA        SUNNY     59  55  88 SW5       30.18R
EASTMAN        FAIR      57  57 100 CALM      30.19R
HAZLEHURST     FAIR      64  55  72 CALM      30.16R
ALMA           SUNNY     59  53  80 CALM      30.16R
6HR MIN TEMP:  51; 6HR MAX TEMP:  59;

WAYCROSS       SUNNY     64  57  80 CALM      30.17R
JESUP          FAIR      61  59  94 CALM      30.17R
BAXLEY         FAIR      61  55  82 CALM      30.17R
BRUNSWICK      SUNNY     61  59  94 CALM      30.18R
SAINT SIMONS   SUNNY     61  59  93 CALM      30.16R
6HR MIN TEMP:  56; 6HR MAX TEMP:  63;


$$

SCZ027-028-034-036>038-045-046-048>050-GAZ119-141-031300-
...LAKE AND SUPPLEMENTAL COASTAL OBSERVATIONS...

STATION/POSITION TIME  TEMP    WIND        PRES    WAVE   SWELL
                       AIR SEA DIR/SP/G            HT/PER HT/PER/DIR
                 (UTC) (F)     (DEG/KT/KT) (MB)    (FT/S) (FT/S/D)
UPR LAKE MARION  NOT AVBL
WINYAH BAY       1145   61        CALM     1020.0R
LAKE MURRAY      1100   57      CALM  /  1 1020.3R
ACE BASIN NERRS  NOT AVBL
FORT PULASKI     1100   62 69  340/  2/  3 1021.1R
SAPELO ISLAND    1200   63     270/  2     1021.0R

$$

ANZ835-935-AMZ111-154-330-350-352-354-370-450-454-472-031300-
...C-MAN AND BUOY OBSERVATIONS...

STATION/POSITION TIME  TEMP    WIND        PRES    WAVE   SWELL
                       AIR SEA DIR/SP/G            HT/PER HT/PER/DIR
                 (UTC) (F)     (DEG/KT/KT) (MB)    (FT/S) (FT/S/D)
BUOY 41004       1150   70 72  270/  4/  6 1021.0R   3/11   3/11
BUOY 41008       1150   69 69  240/  6/  8 1021.0R   3/13   3/ 90/13
FOLLY BEACH CMAN 1200   63     300/  3/  4 1021.6R
CAPERS NEARSHORE 1108   65     280/  8/ 12 1020.7R
FRIPP NEARSHORE  1100   67     280/  8/  8 1020.0R


STATION/POSITION TIME  TEMP    WIND        PRES    WAVE   SWELL
                       AIR SEA DIR/SP/G            HT/PER HT/PER/DIR
                 (UTC) (F)     (DEG/KT/KT) (MB)    (FT/S) (FT/S/D)
5E ST. MARYS GA  1121      70                N/A     3/14   2/ 90/14
FRYING PAN BUOY  1150   69 71  360/  4/  6 1022.0R   3/ 9   3/ 80/ 9
BUOY 41025       1150   58     310/  4/  6 1020.9R   5/11   5/ 80/11
CAPE LOOKOUT NC  1200   65     270/  5/  6 1021.1R
BUOY 41002       1150   67 69   10/ 16/ 19 1020.6R   9/10   7/ 20/10
BUOY 41010       1120   72 78   50/ 12/ 16 1020.0R
ST AUGUSTINE FL  1200   71 70  100/  5/  5 1021.7R


$$


USA.gov is the U.S. government's official web portal to all federal, state and local government web resources and services.